Location: Sperry Observatory
(40.6664°N, 74.3236°W)
Time: 02:51:18
(UTC-04:00)

Amateur Radio Satellites - All Passes

Search period start: 29 July 2015 02:21
Search period end: 30 July 2015 02:21
Location: Sperry Observatory, 40.6664°N, 74.3236°W

Satellite Date Start Highest point End Downlink Frequencies (MHz)
Time Altitude Azimuth
Oscar 19 29 Jul 02:26:19 02:31:29 74° 102° (ESE) 02:36:41 437.125/150
BEESAT 3 29 Jul 02:43:40 02:44:29 10° 323° (NW) 02:45:09 437.485
O/OREOS (USA 219) 29 Jul 02:53:07 02:57:33 66° 294° (WNW) 03:02:03 437.305
Gurwin Techsat 1B 29 Jul 02:55:51 03:00:52 41° 97° (E) 03:05:53 435.225
AIST 2 29 Jul 03:02:46 03:06:26 27° 312° (NW) 03:10:03 435.215
PHONESAT 2.4 29 Jul 03:04:44 03:07:41 25° 206° (SSW) 03:10:36 2401.200-2431.200
STARS 29 Jul 03:12:28 03:16:42 55° 73° (ENE) 03:21:00 437.465
Cosmos 2504 29 Jul 03:14:39 03:21:31 60° 92° (E) 03:28:53 435.465 / 435.565
BEESAT 29 Jul 03:18:27 03:21:15 15° 270° (W) 03:23:51 436.000
ISS 29 Jul 03:21:13 03:23:25 17° 16° (NNE) 03:25:38 145.825
AO-7 29 Jul 03:26:49 03:31:25 16° 87° (E) 03:36:32 29.400- 29.500
JAS-2 29 Jul 03:29:30 03:36:39 40° 94° (E) 03:43:54 435.910
KKS-1 29 Jul 03:30:03 03:34:23 56° 259° (W) 03:38:46 437.445
ITAMSAT 1 29 Jul 03:39:14 03:44:27 88° 285° (WNW) 03:49:38 435.822/435.867
MOZHAYETS 4 29 Jul 03:54:43 03:58:43 30° 70° (ENE) 04:02:48
RS-15 29 Jul 03:57:49 04:06:02 22° 12° (NNE) 04:14:40 29.354- 29.394
Oscar 19 29 Jul 04:07:25 04:10:18 15° 298° (WNW) 04:12:58 437.125/150
HORYU 2 29 Jul 04:27:12 04:31:25 39° 98° (E) 04:35:39 437.375
CUSAT 1 29 Jul 04:29:02 04:31:34 22° 97° (E) 04:33:52 437.405
Gurwin Techsat 1B 29 Jul 04:36:19 04:40:39 25° 294° (WNW) 04:44:52 435.225
STARS 29 Jul 04:51:26 04:53:34 13° 271° (W) 04:55:28 437.465
GONETS M04 29 Jul 04:54:45 04:57:37 12° 77° (ENE) 05:01:12
ISS 29 Jul 04:57:05 05:00:21 67° 34° (NE) 05:03:35 145.825
Cosmos 2504 29 Jul 05:08:45 05:14:26 24° 294° (WNW) 05:20:10 435.465 / 435.565
JAS-2 29 Jul 05:14:24 05:21:44 46° 292° (WNW) 05:29:03 435.910
AO-7 29 Jul 05:17:08 05:25:32 86° 107° (ESE) 05:33:52 29.400- 29.500
ITAMSAT 1 29 Jul 05:21:23 05:23:16 12° 300° (WNW) 05:24:51 435.822/435.867
DANDE 29 Jul 05:24:44 05:28:28 84° 277° (W) 05:31:26 436.750
MOZHAYETS 4 29 Jul 05:32:00 05:35:56 26° 266° (W) 05:39:50
CUBESAT XI-V 29 Jul 05:38:42 05:42:49 32° 70° (ENE) 05:46:59 437.345
HORYU 2 29 Jul 06:04:27 06:07:49 20° 293° (WNW) 06:11:04 437.375
RS-15 29 Jul 06:11:26 06:22:31 47° 43° (NE) 06:34:08 29.354- 29.394
STRAND 1 29 Jul 06:20:35 06:24:59 30° 68° (ENE) 06:29:28 437.568
CUTE-I 29 Jul 06:20:38 06:24:34 21° 92° (E) 06:28:37 437.470
ISS 29 Jul 06:34:48 06:36:26 13° 229° (SW) 06:37:58 145.825
PRISM 29 Jul 06:39:54 06:43:39 33° 71° (ENE) 06:47:27 437.425
GONETS M04 29 Jul 06:44:28 06:53:07 73° 94° (E) 07:01:47
Cosmos 2499 29 Jul 07:02:41 07:07:17 19° 80° (E) 07:12:29 435.465 / 435.565
Cubesat XI-IV 29 Jul 07:02:41 07:07:53 53° 100° (E) 07:13:05 437.490
AO-7 29 Jul 07:11:18 07:17:28 23° 306° (NW) 07:23:19 29.400- 29.500
CUBESAT XI-V 29 Jul 07:16:20 07:20:17 26° 266° (W) 07:24:09 437.345
BRITE-PL 29 Jul 07:37:44 07:39:50 14° 91° (E) 07:42:13 437.365/2234.400
STRAND 1 29 Jul 07:59:29 08:04:08 33° 264° (W) 08:08:43 437.568
CUTE-I 29 Jul 07:59:49 08:04:56 47° 289° (WNW) 08:09:59 437.470
GOMX 1 29 Jul 08:05:44 08:08:35 17° 92° (E) 08:11:41 467.674
DOVE 4 29 Jul 08:12:10 08:13:48 12° 89° (E) 08:15:45 437.250
PRISM 29 Jul 08:16:01 08:19:11 20° 267° (W) 08:22:14 437.425
AUBIESAT-1 29 Jul 08:19:58 08:22:22 16° 59° (ENE) 08:25:01 437.475
RS-15 29 Jul 08:23:59 08:35:31 60° 246° (WSW) 08:47:20 29.354- 29.394
CUTE 1.7 + AOD 2 29 Jul 08:30:45 08:32:55 14° 89° (E) 08:35:17 437.475
SEEDS 29 Jul 08:34:06 08:35:34 12° 88° (E) 08:37:17 437.485
BEESAT 2 29 Jul 08:36:20 08:39:09 18° 44° (NE) 08:42:03 435.950
CANX-2 29 Jul 08:37:54 08:40:55 19° 92° (E) 08:44:03 2200.000
HO-68 29 Jul 08:40:33 08:46:29 28° 94° (E) 08:52:36 435.675
Cubesat XI-IV 29 Jul 08:43:43 08:47:39 21° 296° (WNW) 08:51:24 437.490
GONETS M04 29 Jul 08:44:04 08:50:57 24° 296° (WNW) 08:57:32
PCSat 29 Jul 08:45:47 08:47:58 13° 104° (ESE) 08:50:27 145.827
CINEMA 3 29 Jul 08:46:32 08:48:31 13° 89° (E) 08:50:48 145.822/145.860
Cosmos 2499 29 Jul 08:52:14 08:59:31 75° 280° (W) 09:07:25 435.465 / 435.565
AAUSAT CUBESAT 2 29 Jul 09:08:00 09:10:59 19° 92° (E) 09:14:05 437.432
BRITE-PL 29 Jul 09:14:31 09:18:42 52° 286° (WNW) 09:23:08 437.365/2234.400
M-CUBED/EXP-1 PRIME 29 Jul 09:19:57 09:23:51 82° 73° (ENE) 09:28:09 437.505
BEESAT 3 29 Jul 09:20:29 09:24:29 57° 55° (NE) 09:28:25 437.485
SO-50 29 Jul 09:25:22 09:28:33 19° 110° (ESE) 09:31:57 436.795
UWE-3 29 Jul 09:31:40 09:33:58 14° 89° (E) 09:36:30 435.000/436.395/437.385
CUBEBUG 2 29 Jul 09:39:04 09:42:34 22° 93° (E) 09:46:15 437.445
FUNcube-1 29 Jul 09:39:17 09:40:58 12° 88° (E) 09:42:55 145.935
GOMX 1 29 Jul 09:42:43 09:46:56 45° 286° (WNW) 09:51:24 467.674
AIST 2 29 Jul 09:46:06 09:49:21 22° 45° (NE) 09:52:39 435.215
DOVE 4 29 Jul 09:47:31 09:51:59 66° 284° (WNW) 09:56:45 437.250
TIGRISAT 29 Jul 09:52:43 09:56:05 23° 68° (ENE) 09:59:37 435.000
AUBIESAT-1 29 Jul 09:52:52 09:56:39 48° 257° (WSW) 10:00:48 437.475
ANTELSAT 29 Jul 09:52:54 09:56:23 25° 68° (ENE) 10:00:00 437.575/2403.000
Oscar 11 29 Jul 09:56:28 10:00:18 30° 95° (E) 10:04:09 145.826/435.025
COMPASS 1 29 Jul 09:58:06 10:02:22 87° 102° (ESE) 10:06:34 437.405
POPSAT HIP 1 29 Jul 10:03:13 10:04:40 12° 64° (ENE) 10:06:20 437.405
CUTE 1.7 + AOD 2 29 Jul 10:05:00 10:09:11 49° 287° (WNW) 10:13:19 437.475
SEEDS 29 Jul 10:07:35 10:11:48 57° 285° (WNW) 10:15:58 437.485
QB50P2 29 Jul 10:09:09 10:11:22 15° 66° (ENE) 10:13:46 145.880/145.840
CANX-2 29 Jul 10:13:01 10:17:00 36° 288° (WNW) 10:20:56 2200.000
BEESAT 2 29 Jul 10:13:33 10:17:30 48° 242° (WSW) 10:21:22 435.950
YUBILEINY 29 Jul 10:19:42 10:24:28 16° 58° (ENE) 10:29:46 435.215
CINEMA 3 29 Jul 10:21:34 10:26:09 64° 284° (WNW) 10:30:54 145.822/145.860
BUGSAT 1 29 Jul 10:25:03 10:26:37 12° 65° (ENE) 10:28:23 437.445
PCSat 29 Jul 10:25:20 10:30:45 82° 299° (WNW) 10:36:13 145.827
HO-68 29 Jul 10:27:37 10:34:36 55° 292° (WNW) 10:41:32 435.675
HUMSAT D 29 Jul 10:29:36 10:32:28 18° 91° (E) 10:35:29 437.325/437.525
DUCHIFAT 1 29 Jul 10:36:14 10:39:40 26° 69° (ENE) 10:43:12 145.980
QB50P1 29 Jul 10:36:47 10:40:19 27° 70° (ENE) 10:43:56 145.935-145.965
NANOSAT C BR1 29 Jul 10:39:20 10:42:55 29° 70° (ENE) 10:46:35 145.865
RS-15 29 Jul 10:42:43 10:46:03 11° 263° (W) 10:47:58 29.354- 29.394
AAUSAT CUBESAT 2 29 Jul 10:42:53 10:46:43 34° 288° (WNW) 10:50:29 437.432
UNISAT 6 29 Jul 10:43:27 10:47:46 87° 80° (E) 10:52:13 437.425
ZACube-1 29 Jul 10:49:59 10:54:30 75° 100° (E) 10:59:05 437.345
Cosmos 2499 29 Jul 10:50:56 10:54:32 13° 304° (NW) 10:57:44 435.465 / 435.565
DELFI C3 29 Jul 10:52:03 10:56:09 89° 97° (E) 11:00:12 145.870
Cosmos 2491 29 Jul 10:58:05 10:59:00 10° 75° (ENE) 11:00:44 435.465 / 435.565
BEESAT 3 29 Jul 11:00:15 11:01:59 12° 250° (WSW) 11:03:31 437.485
SO-50 29 Jul 11:04:02 11:08:42 53° 307° (NW) 11:13:32 436.795
UWE-3 29 Jul 11:06:23 11:10:52 57° 286° (WNW) 11:15:25 435.000/436.395/437.385
50 SAT 29 Jul 11:08:04 11:11:02 20° 93° (E) 11:14:05 437.505
FUNcube-1 29 Jul 11:13:16 11:17:45 63° 285° (WNW) 11:22:16 145.935
CUBEBUG 2 29 Jul 11:15:07 11:19:22 37° 288° (WNW) 11:23:39 437.445
POLYITAN 1 29 Jul 11:17:24 11:21:36 82° 76° (ENE) 11:25:49 437.675
AISAT 29 Jul 11:18:18 11:21:52 24° 94° (E) 11:25:30 437.250
AIST 2 29 Jul 11:24:10 11:28:06 39° 244° (WSW) 11:31:56 435.215
O/OREOS (USA 219) 29 Jul 11:24:40 11:28:17 23° 57° (ENE) 11:31:59 437.305
TIGRISAT 29 Jul 11:28:54 11:32:43 30° 265° (W) 11:36:35 435.000
ANTELSAT 29 Jul 11:29:16 11:33:03 29° 265° (W) 11:36:54 437.575/2403.000
Oscar 11 29 Jul 11:32:48 11:36:22 24° 291° (WNW) 11:39:49 145.826/435.025
UKube-1 29 Jul 11:33:01 11:37:16 53° 100° (E) 11:41:29 .
POPSAT HIP 1 29 Jul 11:35:55 11:40:04 62° 259° (W) 11:44:15 437.405
QB50P2 29 Jul 11:42:49 11:46:54 49° 261° (W) 11:51:00 145.880/145.840
CUBEBUG 1 29 Jul 11:42:52 11:46:24 25° 95° (E) 11:50:00 437.445
DX 1 29 Jul 11:55:56 12:00:17 76° 285° (WNW) 12:04:36 434.975-435.025
ESTCUBE 1 29 Jul 11:56:29 12:00:46 43° 98° (E) 12:05:03 437.505/2401.250
BUGSAT 1 29 Jul 11:57:42 12:01:41 55° 260° (W) 12:05:41 437.445
VELOX 1 29 Jul 11:57:49 12:02:12 64° 101° (E) 12:06:34 145.980
HUMSAT D 29 Jul 12:04:21 12:08:24 39° 288° (WNW) 12:12:25 437.325/437.525
Oscar 19 29 Jul 12:07:03 12:09:14 13° 61° (ENE) 12:11:39 437.125/150
DUCHIFAT 1 29 Jul 12:11:55 12:15:26 25° 265° (W) 12:18:53 145.980
PCSat 29 Jul 12:11:58 12:15:07 15° 320° (NW) 12:18:05 145.827
QB50P1 29 Jul 12:12:43 12:16:11 24° 266° (W) 12:19:34 145.935-145.965
YUBILEINY 29 Jul 12:14:14 12:23:06 79° 81° (E) 12:31:57 435.215
NANOSAT C BR1 29 Jul 12:15:24 12:18:47 23° 266° (W) 12:22:04 145.865
HO-68 29 Jul 12:19:34 12:20:58 10° 310° (NW) 12:21:53 435.675
ZACube-1 29 Jul 12:28:40 12:30:21 12° 296° (WNW) 12:31:48 437.345
SPROUT 29 Jul 12:31:28 12:35:00 25° 95° (E) 12:38:36 437.525
50 SAT 29 Jul 12:42:10 12:45:38 29° 289° (WNW) 12:49:03 437.505
Cosmos 2491 29 Jul 12:45:44 12:54:21 65° 93° (E) 13:03:00 435.465 / 435.565
SO-50 29 Jul 12:49:10 12:50:27 11° 329° (NNW) 12:51:33 436.795
AISAT 29 Jul 12:54:36 12:58:27 30° 290° (WNW) 13:02:16 437.250
TISAT 1 29 Jul 12:56:04 12:59:42 28° 96° (E) 13:03:23 437.305
Cosmos 2504 29 Jul 13:01:11 13:06:59 21° 64° (ENE) 13:13:17 435.465 / 435.565
AIST 1 29 Jul 13:01:31 13:05:53 69° 279° (W) 13:10:13
O/OREOS (USA 219) 29 Jul 13:03:37 13:07:50 36° 254° (WSW) 13:12:01 437.305
UKube-1 29 Jul 13:10:35 13:12:59 14° 295° (WNW) 13:15:14 .
CUBEBUG 1 29 Jul 13:19:02 13:22:45 28° 290° (WNW) 13:26:25 437.445
ITAMSAT 1 29 Jul 13:19:43 13:23:02 18° 63° (ENE) 13:26:32 435.822/435.867
ESTCUBE 1 29 Jul 13:34:12 13:37:21 18° 294° (WNW) 13:40:21 437.505/2401.250
VELOX 1 29 Jul 13:36:16 13:38:16 13° 296° (WNW) 13:40:04 145.980
BEESAT 29 Jul 13:40:18 13:42:54 15° 90° (E) 13:45:43 436.000
Oscar 19 29 Jul 13:42:52 13:47:59 81° 258° (WSW) 13:53:08 437.125/150
JAS-2 29 Jul 13:44:22 13:47:32 15° 56° (NE) 13:51:12 435.910
SWISSCUBE 29 Jul 13:59:21 14:03:17 26° 94° (E) 14:07:16 437.505
SPROUT 29 Jul 14:07:23 14:11:04 27° 290° (WNW) 14:14:40 437.525
YUBILEINY 29 Jul 14:12:46 14:19:03 21° 279° (W) 14:24:56 435.215
Gurwin Techsat 1B 29 Jul 14:16:31 14:21:45 64° 74° (ENE) 14:27:03 435.225
ITUPSAT 1 29 Jul 14:18:27 14:22:50 36° 97° (E) 14:27:14 437.325
AO-7 29 Jul 14:25:16 14:31:40 26° 56° (NE) 14:38:19 29.400- 29.500
TISAT 1 29 Jul 14:31:58 14:35:22 24° 291° (WNW) 14:38:42 437.305
Cosmos 2491 29 Jul 14:44:38 14:51:59 28° 294° (WNW) 14:59:03 435.465 / 435.565
Cosmos 2504 29 Jul 14:51:54 15:00:17 84° 265° (W) 15:08:55 435.465 / 435.565
ITAMSAT 1 29 Jul 14:56:57 15:02:06 60° 259° (WSW) 15:07:18 435.822/435.867
CUSAT 1 29 Jul 15:02:12 15:05:16 22° 76° (ENE) 15:09:05 437.405
STARS 29 Jul 15:05:31 15:05:54 10° 88° (E) 15:06:35 437.465
BEESAT 29 Jul 15:16:29 15:21:11 56° 287° (WNW) 15:25:50 436.000
KKS-1 29 Jul 15:21:41 15:25:29 28° 95° (E) 15:29:21 437.445
HORYU 2 29 Jul 15:25:10 15:29:10 35° 70° (ENE) 15:33:15 437.375
JAS-2 29 Jul 15:25:38 15:31:32 86° 76° (ENE) 15:38:18 435.910
SWISSCUBE 29 Jul 15:36:54 15:41:11 33° 291° (WNW) 15:45:24 437.505
ITUPSAT 1 29 Jul 15:56:41 16:00:33 24° 293° (WNW) 16:04:19 437.325
Gurwin Techsat 1B 29 Jul 15:59:00 16:02:17 16° 271° (W) 16:05:19 435.225
DANDE 29 Jul 16:01:59 16:05:26 58° 80° (E) 16:09:59 436.750
AO-7 29 Jul 16:15:24 16:23:47 76° 254° (WSW) 16:32:12 29.400- 29.500
STARS 29 Jul 16:38:30 16:42:54 71° 286° (WNW) 16:47:19 437.465
CUSAT 1 29 Jul 16:44:13 16:47:44 29° 263° (W) 16:52:05 437.405
Cosmos 2504 29 Jul 16:46:36 16:51:31 16° 280° (W) 16:55:56 435.465 / 435.565
Cubesat XI-IV 29 Jul 16:48:38 16:50:19 12° 59° (ENE) 16:52:17 437.490
GONETS M04 29 Jul 16:55:24 17:03:08 35° 70° (ENE) 17:11:01
KKS-1 29 Jul 16:58:16 17:02:04 27° 291° (WNW) 17:05:47 437.445
HORYU 2 29 Jul 17:02:28 17:05:55 21° 267° (W) 17:09:16 437.375
JAS-2 29 Jul 17:14:49 17:17:53 13° 278° (W) 17:20:41 435.910
MOZHAYETS 4 29 Jul 17:26:28 17:31:08 75° 103° (ESE) 17:35:45
PCSat 29 Jul 17:31:55 17:34:33 14° 38° (NE) 17:37:23 145.827
CUTE-I 29 Jul 17:41:55 17:46:41 35° 69° (ENE) 17:51:33 437.470
SO-50 29 Jul 17:56:05 17:59:43 20° 41° (NE) 18:03:24 436.795
AO-7 29 Jul 18:14:04 18:18:09 13° 275° (W) 18:21:34 29.400- 29.500
Cubesat XI-IV 29 Jul 18:24:18 18:29:41 84° 75° (ENE) 18:35:06 437.490
Cosmos 2499 29 Jul 18:42:49 18:50:52 42° 72° (ENE) 18:59:12 435.465 / 435.565
VERMONT LUNAR 29 Jul 18:46:51 18:48:13 12° 148° (SSE) 18:49:41 437.305
BRITE-PL 29 Jul 18:48:57 18:51:31 16° 68° (ENE) 18:54:11 437.365/2234.400
GONETS M04 29 Jul 18:51:59 19:00:18 50° 270° (W) 19:08:34
MOZHAYETS 4 29 Jul 19:05:56 19:07:47 12° 297° (WNW) 19:09:23
HO-68 29 Jul 19:10:03 19:15:06 22° 58° (ENE) 19:20:23 435.675
CUBESAT XI-V 29 Jul 19:12:20 19:16:58 82° 102° (ESE) 19:21:33 437.345
PCSat 29 Jul 19:13:34 19:19:01 74° 59° (ENE) 19:24:26 145.827
GOMX 1 29 Jul 19:14:41 19:17:18 17° 67° (ENE) 19:20:01 467.674
DOVE 4 29 Jul 19:19:21 19:20:07 11° 64° (ENE) 19:21:08 437.250
CUTE-I 29 Jul 19:22:06 19:26:48 30° 265° (W) 19:31:27 437.470
CUTE 1.7 + AOD 2 29 Jul 19:25:13 19:25:55 10° 64° (ENE) 19:26:52 437.475
CANX-2 29 Jul 19:31:34 19:33:44 14° 65° (ENE) 19:36:05 2200.000
SO-50 29 Jul 19:35:50 19:40:46 65° 241° (WSW) 19:45:32 436.795
CINEMA 3 29 Jul 19:50:45 19:50:46 10° 63° (ENE) 19:51:02 145.822/145.860
PRISM 29 Jul 19:57:16 20:01:19 56° 100° (E) 20:05:20 437.425
AAUSAT CUBESAT 2 29 Jul 19:59:32 20:01:33 14° 65° (ENE) 20:03:45 437.432
Cubesat XI-IV 29 Jul 20:08:36 20:10:35 12° 273° (W) 20:12:11 437.490
STRAND 1 29 Jul 20:09:36 20:14:46 87° 103° (ESE) 20:19:52 437.568
VERMONT LUNAR 29 Jul 20:21:28 20:24:32 47° 162° (SSE) 20:27:37 437.305
BRITE-PL 29 Jul 20:25:28 20:29:50 45° 261° (W) 20:33:57 437.365/2234.400
UWE-3 29 Jul 20:30:46 20:31:22 10° 63° (ENE) 20:32:11 435.000/436.395/437.385
Cosmos 2499 29 Jul 20:35:58 20:44:08 45° 271° (W) 20:52:19 435.465 / 435.565
CUBEBUG 2 29 Jul 20:38:10 20:40:42 16° 66° (ENE) 20:43:25 437.445
RS-15 29 Jul 20:38:20 20:45:54 24° 103° (ESE) 20:54:11 29.354- 29.394
COMPASS 1 29 Jul 20:48:38 20:52:44 55° 75° (ENE) 20:56:54 437.405
GOMX 1 29 Jul 20:51:08 20:55:13 40° 262° (W) 20:59:10 467.674
Oscar 11 29 Jul 20:51:17 20:54:40 23° 69° (ENE) 20:58:09 145.826/435.025
CUBESAT XI-V 29 Jul 20:52:35 20:53:48 11° 298° (WNW) 20:54:45 437.345
DOVE 4 29 Jul 20:53:17 20:57:27 65° 259° (W) 21:01:34 437.250
HO-68 29 Jul 20:55:03 21:02:11 76° 256° (WSW) 21:09:22 435.675
CUTE 1.7 + AOD 2 29 Jul 20:57:02 21:01:17 74° 258° (WSW) 21:05:35 437.475
SEEDS 29 Jul 20:58:47 21:03:03 88° 266° (W) 21:07:19 437.485
PCSat 29 Jul 20:58:52 21:01:52 15° 255° (WSW) 21:04:35 145.827
CANX-2 29 Jul 21:05:05 21:09:15 53° 260° (W) 21:13:28 2200.000
HUMSAT D 29 Jul 21:22:30 21:24:07 12° 65° (ENE) 21:25:56 437.325/437.525
CINEMA 3 29 Jul 21:23:19 21:27:27 71° 259° (W) 21:31:38 145.822/145.860
PHONESAT 2.4 29 Jul 21:26:34 21:29:38 29° 155° (SSE) 21:32:44 2401.200-2431.200
AAUSAT CUBESAT 2 29 Jul 21:32:38 21:36:44 53° 261° (W) 21:40:53 437.432
PRISM 29 Jul 21:34:27 21:36:19 13° 296° (WNW) 21:38:01 437.425
AUBIESAT-1 29 Jul 21:34:42 21:37:08 14° 94° (E) 21:39:47 437.475
ISS 29 Jul 21:36:39 21:39:16 23° 134° (SE) 21:41:56 145.825
DELFI C3 29 Jul 21:38:34 21:42:29 50° 74° (ENE) 21:46:27 145.870
ZACube-1 29 Jul 21:45:43 21:49:46 54° 74° (ENE) 21:53:55 437.345
STRAND 1 29 Jul 21:51:13 21:53:19 12° 299° (WNW) 21:55:09 437.568
50 SAT 29 Jul 21:53:16 21:54:35 12° 65° (ENE) 21:56:06 437.505
VERMONT LUNAR 29 Jul 21:58:01 22:01:13 90° 116° (ESE) 22:04:23 437.305
UWE-3 29 Jul 22:03:11 22:07:20 71° 259° (WSW) 22:11:35 435.000/436.395/437.385
FUNcube-1 29 Jul 22:08:35 22:12:45 84° 256° (WSW) 22:17:01 145.935
CUBEBUG 2 29 Jul 22:13:09 22:17:06 42° 262° (W) 22:21:07 437.445
AISAT 29 Jul 22:16:05 22:19:26 22° 68° (ENE) 22:22:53 437.250
Oscar 11 29 Jul 22:26:51 22:30:43 31° 264° (W) 22:34:34 145.826/435.025
COMPASS 1 29 Jul 22:27:03 22:28:50 12° 272° (W) 22:30:23 437.405
UKube-1 29 Jul 22:27:25 22:31:30 43° 72° (ENE) 22:35:37 .
M-CUBED/EXP-1 PRIME 29 Jul 22:35:21 22:40:11 72° 107° (ESE) 22:44:53 437.505
UNISAT 6 29 Jul 22:36:18 22:39:39 20° 92° (E) 22:43:10 437.425
CUBEBUG 1 29 Jul 22:39:06 22:42:20 21° 68° (ENE) 22:45:40 437.445
RS-15 29 Jul 22:46:05 22:57:01 86° 303° (WNW) 23:08:24 29.354- 29.394
HO-68 29 Jul 22:48:43 22:51:17 12° 275° (W) 22:53:15 435.675
DX 1 29 Jul 22:50:54 22:55:16 89° 77° (ENE) 22:59:38 434.975-435.025
VELOX 1 29 Jul 22:54:54 22:59:12 55° 74° (ENE) 23:03:32 145.980
HUMSAT D 29 Jul 22:55:20 22:59:24 58° 260° (W) 23:03:31 437.325/437.525
ESTCUBE 1 29 Jul 22:55:43 22:59:55 39° 71° (ENE) 23:04:09 437.505/2401.250
Cosmos 2491 29 Jul 22:56:55 23:04:20 31° 68° (ENE) 23:11:55 435.465 / 435.565
PHONESAT 2.4 29 Jul 23:03:53 23:07:23 78° 171° (S) 23:10:53 2401.200-2431.200
POLYITAN 1 29 Jul 23:04:35 23:06:42 14° 90° (E) 23:09:03 437.675
AUBIESAT-1 29 Jul 23:07:34 23:12:17 63° 291° (WNW) 23:16:54 437.475
AIST 1 29 Jul 23:09:25 23:13:00 26° 74° (ENE) 23:16:39
ISS 29 Jul 23:12:29 23:15:34 40° 330° (NNW) 23:18:41 145.825
BEESAT 3 29 Jul 23:15:33 23:16:30 11° 109° (ESE) 23:17:42 437.485
DELFI C3 29 Jul 23:16:05 23:17:54 12° 271° (W) 23:19:32 145.870
TIGRISAT 29 Jul 23:19:54 23:24:29 55° 99° (E) 23:29:07 435.000
ANTELSAT 29 Jul 23:20:28 23:25:06 58° 100° (E) 23:29:45 437.575/2403.000
POPSAT HIP 1 29 Jul 23:21:55 23:25:08 21° 93° (E) 23:28:27 437.405
YUBILEINY 29 Jul 23:22:20 23:27:12 17° 79° (E) 23:32:36 435.215
ZACube-1 29 Jul 23:24:48 23:26:35 12° 272° (W) 23:28:08 437.345
50 SAT 29 Jul 23:24:56 23:28:44 53° 260° (W) 23:32:34 437.505
SPROUT 29 Jul 23:25:51 23:28:53 20° 68° (ENE) 23:32:02 437.525
QB50P2 29 Jul 23:28:36 23:32:10 26° 95° (E) 23:35:47 145.880/145.840
VERMONT LUNAR 29 Jul 23:34:47 23:37:55 56° 195° (SSW) 23:41:00 437.305
BUGSAT 1 29 Jul 23:40:40 23:43:40 20° 93° (E) 23:46:46 437.445
TISAT 1 29 Jul 23:48:21 23:51:28 21° 68° (ENE) 23:54:41 437.305
AISAT 29 Jul 23:51:49 23:55:50 33° 263° (W) 23:59:50 437.250
DUCHIFAT 1 29 Jul 23:55:55 00:00:02 49° 99° (E) 00:04:10 145.980
QB50P1 29 Jul 23:57:02 00:01:12 53° 100° (E) 00:05:22 145.935-145.965
NANOSAT C BR1 29 Jul 23:59:23 00:03:34 56° 100° (E) 00:07:44 145.865
UKube-1 30 Jul 00:05:06 00:07:53 16° 269° (W) 00:10:30 .
BEESAT 2 30 Jul 00:06:37 00:10:13 31° 115° (ESE) 00:13:55 435.950
M-CUBED/EXP-1 PRIME 30 Jul 00:11:37 00:14:24 15° 302° (WNW) 00:17:00 437.505
UNISAT 6 30 Jul 00:12:12 00:16:37 41° 288° (WNW) 00:21:01 437.425
CUBEBUG 1 30 Jul 00:14:29 00:18:30 34° 263° (W) 00:22:29 437.445
ESTCUBE 1 30 Jul 00:33:34 00:36:58 20° 268° (W) 00:40:13 437.505/2401.250
VELOX 1 30 Jul 00:33:54 00:36:09 13° 270° (W) 00:38:11 145.980
POLYITAN 1 30 Jul 00:38:48 00:42:56 49° 287° (WNW) 00:47:05 437.675
PHONESAT 2.4 30 Jul 00:41:51 00:45:21 81° 189° (S) 00:48:51 2401.200-2431.200
BEESAT 30 Jul 00:46:36 00:49:43 18° 65° (ENE) 00:52:59 436.000
AIST 1 30 Jul 00:47:09 00:50:34 23° 270° (W) 00:53:53
BEESAT 3 30 Jul 00:49:55 00:53:57 66° 303° (WNW) 00:58:03 437.485
ISS 30 Jul 00:50:52 00:52:41 14° 349° (N) 00:54:30 145.825
Cosmos 2491 30 Jul 00:53:16 01:01:44 57° 269° (W) 01:10:08 435.465 / 435.565
POPSAT HIP 1 30 Jul 00:57:16 01:01:05 32° 289° (WNW) 01:04:50 437.405
TIGRISAT 30 Jul 00:57:53 01:00:51 16° 295° (WNW) 01:03:39 435.000
ANTELSAT 30 Jul 00:58:37 01:01:27 16° 295° (WNW) 01:04:08 437.575/2403.000
SPROUT 30 Jul 01:00:48 01:04:46 35° 263° (W) 01:08:41 437.525
RS-15 30 Jul 01:01:52 01:11:23 31° 331° (NNW) 01:21:03 29.354- 29.394
QB50P2 30 Jul 01:04:25 01:08:00 26° 291° (WNW) 01:11:32 145.880/145.840
SWISSCUBE 30 Jul 01:05:36 01:09:42 29° 69° (ENE) 01:13:54 437.505
VERMONT LUNAR 30 Jul 01:12:18 01:14:16 15° 210° (SSW) 01:16:11 437.305
YUBILEINY 30 Jul 01:14:14 01:22:56 90° 273° (W) 01:31:45 435.215
BUGSAT 1 30 Jul 01:15:37 01:19:11 30° 289° (WNW) 01:22:46 437.445
AIST 2 30 Jul 01:21:13 01:25:15 45° 117° (ESE) 01:29:21 435.215
TISAT 1 30 Jul 01:23:20 01:27:04 31° 264° (W) 01:30:48 437.305
ITUPSAT 1 30 Jul 01:24:50 01:29:19 41° 71° (ENE) 01:33:51 437.325
DUCHIFAT 1 30 Jul 01:33:01 01:35:28 15° 294° (WNW) 01:37:46 145.980
QB50P1 30 Jul 01:34:24 01:36:40 14° 295° (WNW) 01:38:46 145.935-145.965
Cosmos 2504 30 Jul 01:36:44 01:38:08 11° 76° (ENE) 01:40:09 435.465 / 435.565
O/OREOS (USA 219) 30 Jul 01:36:49 01:40:26 25° 104° (ESE) 01:44:11 437.305
NANOSAT C BR1 30 Jul 01:36:51 01:38:59 13° 295° (WNW) 01:40:55 145.865
BEESAT 2 30 Jul 01:44:49 01:48:18 26° 312° (NW) 01:51:46 435.950
Oscar 19 30 Jul 01:54:54 01:59:39 36° 97° (E) 02:04:27 437.125/150
